Regional Weather Roundup
Issued by NWS

Home | Current Version | Previous Version | Text Only | Print | Product List | Glossary On
Versions: 1 2 3 4 5 6 7 8 9 10 11 12 13 14 15 16 17 18 19 20 21 22 23 24 25 26 27 28 29 30 31 32 33 34 35 36 37 38 39 40 41 42 43 44 45 46 47 48 49 50
000
ASUS45 KABQ 241010
RWRNM
NEW MEXICO REGIONAL WEATHER ROUNDUP
NATIONAL WEATHER SERVICE ALBUQUERQUE NM
300 AM MST SAT FEB 24 2018

NOTE: "FAIR" MEANS FEW OR NO CLOUDS BELOW 12,000 FEET AGL WITH NO
       SIGNIFICANT WEATHER OR OBSTRUCTIONS TO VISION.

      THIS PRODUCT IS RELEASED AS TWO VERSIONS.  ONE VERSION NEAR
      THE TOP OF THE HOUR CONTAINING PRELIMINARY DATA FROM ALBUQUERQUE
      AND OTHER STATIONS.  A FINAL VERSION WITH ADDITIONAL DATA IS
      ISSUED ABOUT 10 MINUTES AFTER THE HOUR.

NMZ501-503-504-510>518-241100-
NORTHWEST PLATEAU/NORTHCENTRAL MOUNTAINS

CITY           SKY/WX    TMP DP  RH WIND       PRES   REMARKS
FARMINGTON     FAIR      20  19  96 W10       29.97S WCI   9
LOS ALAMOS     FAIR      25  11  55 W13       29.88F WCI  14
SANTA FE       FAIR      26  18  71 SW7       29.90F WCI  18
TAOS           FAIR      24  15  68 W16       29.88F WCI  11
ANGEL FIRE     LGT SNOW  20  14  77 NW5G23    29.78F WCI  13

$$
NMZ402-403-502-505>509-241100-
WESTCENTRAL MOUNTAINS/SOUTHWEST MOUNTAINS

CITY           SKY/WX    TMP DP  RH WIND       PRES   REMARKS
GALLUP         FAIR      17  15  92 SW5       29.99S WCI  10
GRANTS         FAIR      22  13  66 W14       29.96F WCI  10
SILVER CITY    FAIR      33  20  59 NW26G36   29.98S WCI  20

$$
NMZ407-409-411-412-241100-
SOUTHERN DESERTS

CITY           SKY/WX    TMP DP  RH WIND       PRES   REMARKS
DEMING         FAIR      38  22  52 W14       30.00R WCI  30
LAS CRUCES     FAIR      41  19  41 W18       29.98S
HOLLOMAN AFB   FAIR      44  15  31 W14       29.96R
ALAMOGORDO     FAIR      46  12  25 W8        29.96R
T OR C         FAIR      39  17  41 N6        29.96R WCI  35

$$
NMZ519>523-241100-
CENTRAL VALLEYS/CENTRAL HIGHLANDS

CITY           SKY/WX    TMP DP  RH WIND       PRES   REMARKS
ALBUQUERQUE    MOCLDY    32  20  61 W12       29.96S WCI  23
MORIARTY ARPT  CLOUDY    29  24  80 W7        29.93F WCI  22
CLINES CORNERS FAIR      23  18  81 W30G40    29.83F WCI   5
BELEN          CLOUDY    32  19  59 W8        29.99S WCI  25
SOCORRO        CLOUDY    37  20  51 NW12G18   29.97R WCI  29

$$
NMZ524>526-539-540-241100-
SOUTHCENTRAL MOUNTAINS

CITY           SKY/WX    TMP DP  RH WIND       PRES   REMARKS
RUIDOSO        NOT AVBL

$$
NMZ527>531-241100-
NORTHEAST HIGHLANDS/NORTHEAST PLAINS

CITY           SKY/WX    TMP DP  RH WIND       PRES   REMARKS
LAS VEGAS      FAIR      29   9  43 W22G33    29.81S WCI  15
RATON          FAIR      20  13  74 NE5       29.79S WCI  13
CLAYTON        CLOUDY    27  27 100 N9        29.81S FOG     WCI  18

$$
NMZ532>537-241100-
EASTCENTRAL PLAINS

CITY           SKY/WX    TMP DP  RH WIND       PRES   REMARKS
SANTA ROSA     FAIR      34  15  44 W7        29.87R WCI  28
TUCUMCARI      FAIR      36  10  34 W10       29.80R WCI  28
CANNON AFB     FAIR      36  36 100 W8        29.85S WCI  30
CLOVIS AIRPORT FAIR      37  36  96 SW7       29.84S FOG     WCI  32

$$
NMZ028-029-538-241100-
SOUTHEAST PLAINS

CITY           SKY/WX    TMP DP  RH WIND       PRES   REMARKS
ROSWELL        FAIR      42  11  28 NW9       29.83S
ARTESIA        FAIR      45   9  23 SE9       29.85S
CARLSBAD       FAIR      36  33  89 MISG      29.84F
HOBBS          CLOUDY    46  45  93 SW9       29.86F


$$



USA.gov is the U.S. government's official web portal to all federal, state and local government web resources and services.